Tracking 29059 objects as of 17-Jun-2024
HD Live streaming from Space Station
objects crossing your sky now

OBJECT W

Track OBJECT W now!
10-day predictions


NORAD ID: 56866
Int'l Code: 2023-081W
Perigee: 504.2 km
Apogee: 526.9 km
Inclination: 97.4 °
Period: 94.8 minutes
Semi major axis: 6886 km
RCS: Unknown
Launch date: June 7, 2023
Source: (TBD)
Launch site: Jiuquan Satellite Launch Center, China (JSC)
Your satellite tracking list
Your tracking list is empty




NASA's NSSDC Master Catalog

Two Line Element Set (TLE):
1 56866U 23081W   24168.90028140  .00010393  00000-0  49560-3 0  9993
2 56866  97.3793 240.8722 0016487  53.2807 306.9939 15.19155186 57055
Source of the keplerian elements: AFSPC